Weather History for Harare Kutsaga, Zimbabwe

Change the Weather History Date:

Tuesday, March 5, 2013

  Actual Average Record
Temperature  
Mean Temperature 69 °F -  
Max Temperature 78 °F 79 °F 86 °F (2012)
Min Temperature 61 °F 57 °F 55 °F (2005)
Cooling Degree Days 4    
Growing Degree Days 19 (Base 50)    
Moisture  
Dew Point 64 °F    
Average Humidity 86    
Maximum Humidity 100    
Minimum Humidity 56    
Precipitation  
Precipitation 0.00 in 0.11 in - ()
Sea Level Pressure  
Sea Level Pressure 30.23 in    
Wind  
Wind Speed 4 mph ()    
Max Wind Speed 8 mph    
Max Gust Speed -    
Visibility 9.2 miles    
Events Rain , Thunderstorm    
Averages and records for this station are not official NWS values.
T = Trace of Precipitation, MM = Missing Value Source: Averaged Metar Reports

Daily Weather History Graph

Daily Weather History Graph

Search for Another Location

Airport:

Trip Planner

Search our weather history database for the weather conditions in past years. The results will help you decide how hot, cold, wet, or windy it might be!

Date:

Astronomy

Mar. 05, 2013 Rise Set
Actual Time 5:55 AM CAT 6:17 PM CAT
Civil Twilight 5:33 AM CAT 6:39 PM CAT
Nautical Twilight 5:08 AM CAT 7:05 PM CAT
Astronomical Twilight 4:42 AM CAT 7:31 PM CAT
Moon No Moon Rise 12:55 PM CAT (3/5)
Length of Visible Light 13h 06m
Length of Day
12h 22m
Last Quarter, 44% of the Moon is Illuminated
Mar 5
Last Quarter
Mar 11
New
Mar 19
First Quarter
Mar 27
Full
Apr 3
Last Quarter

Hourly Weather History & Observations

Time (CAT) Temp. Dew Point Humidity Pressure Visibility Wind Dir Wind Speed Gust Speed Precip Events Conditions
12:00 AM 64.4 °F 64.4 °F 100% 30.27 in 6.2 mi SE 4.6 mph - N/A   Mostly Cloudy
1:00 AM 64.4 °F 64.4 °F 100% 30.27 in - Calm Calm - N/A   Clear
2:00 AM 64 °F 64 °F 99%  in 16 mi ESE 3.5 mph - -   Overcast
2:00 AM 64.4 °F 64.4 °F 100% 30.24 in - ESE 3.5 mph - N/A   Clear
3:00 AM 62.6 °F 62.6 °F 100% 30.24 in - SE 4.6 mph - N/A   Clear
4:00 AM 62.6 °F 62.6 °F 100% 30.24 in - Variable 1.2 mph - N/A   Clear
5:00 AM 62.6 °F 62.6 °F 100% 30.24 in - ESE 1.2 mph - N/A   Clear
6:00 AM 62.6 °F 62.6 °F 100% 30.24 in - Calm Calm - N/A   Clear
7:00 AM 64.4 °F 62.6 °F 94% 30.24 in - Calm Calm - N/A   Clear
8:00 AM 67 °F 64 °F 85%  in 19 mi SE 8.1 mph - -   Mostly Cloudy
8:00 AM 68.0 °F 62.6 °F 83% 30.27 in 6.2 mi SE 8.1 mph - N/A   Mostly Cloudy
9:00 AM 68.0 °F 62.6 °F 83% 30.27 in 6.2 mi SE 6.9 mph - N/A   Mostly Cloudy
10:00 AM 71.6 °F 62.6 °F 73% 30.27 in 6.2 mi ESE 8.1 mph - N/A   Mostly Cloudy
11:00 AM 73.4 °F 60.8 °F 65% 30.27 in 6.2 mi East 5.8 mph - N/A   Mostly Cloudy
1:00 PM 77.0 °F 62.6 °F 61% 30.21 in 6.2 mi NNE 5.8 mph - N/A   Mostly Cloudy
2:00 PM 76 °F 63 °F 56%  in 19 mi NNE 6.9 mph - -   Mostly Cloudy
2:00 PM 75.2 °F 62.6 °F 65% 30.18 in 6.2 mi NNE 6.9 mph - N/A   Mostly Cloudy
3:00 PM 73.4 °F 64.4 °F 73% 30.18 in 6.2 mi South 8.1 mph - N/A Rain Light Rain Showers
4:00 PM 69.8 °F 66.2 °F 88% 30.15 in 6.2 mi ESE 4.6 mph - N/A Thunderstorm Thunderstorm
5:00 PM 71.6 °F 66.2 °F 83% 30.18 in 6.2 mi East 6.9 mph - N/A Thunderstorm Thunderstorm
6:00 PM 68.0 °F 64.4 °F 88% 30.18 in 6.2 mi SSE 6.9 mph - N/A Thunderstorm Thunderstorm
7:00 PM 66.2 °F 64.4 °F 94% 30.21 in 6.2 mi ESE 3.5 mph - N/A   Mostly Cloudy
8:00 PM 67 °F 65 °F 92%  in 19 mi East 5.8 mph - - Thunderstorm Light Thunderstorm